TimeEDT,TemperatureF,Dew PointF,Humidity,Sea Level PressureIn,VisibilityMPH,Wind Direction,Wind SpeedMPH,Gust SpeedMPH,PrecipitationIn,Events,Conditions,WindDirDegrees,DateUTC
12:26 AM,64.4,64.4,100,30.05,2.5,Calm,Calm,-,N/A,,Overcast,0,2012-10-05 04:26:00
12:51 AM,64.4,64.4,100,30.05,1.5,Calm,Calm,-,N/A,,Overcast,0,2012-10-05 04:51:00
12:53 AM,64.9,64.0,97,30.05,1.5,Calm,Calm,-,N/A,,Overcast,0,2012-10-05 04:53:00
1:18 AM,64.4,64.4,100,30.05,0.8,Calm,Calm,-,N/A,,Mist,0,2012-10-05 05:18:00
1:50 AM,64.4,64.4,100,30.04,0.2,Calm,Calm,-,N/A,Fog,Fog,0,2012-10-05 05:50:00
1:53 AM,64.9,64.9,100,30.04,0.2,Calm,Calm,-,N/A,Fog,Fog,0,2012-10-05 05:53:00
2:31 AM,64.4,64.4,100,30.03,0.8,West,3.5,-,N/A,,Mist,260,2012-10-05 06:31:00
2:38 AM,64.4,64.4,100,30.03,2.0,Calm,Calm,-,N/A,,Overcast,0,2012-10-05 06:38:00
2:46 AM,64.4,64.4,100,30.03,4.0,Variable,4.6,-,N/A,,Overcast,0,2012-10-05 06:46:00
2:53 AM,64.0,64.0,100,30.03,6.0,Variable,3.5,-,N/A,,Overcast,0,2012-10-05 06:53:00
3:53 AM,63.0,63.0,100,30.02,6.0,Calm,Calm,-,N/A,,Overcast,0,2012-10-05 07:53:00
4:20 AM,62.6,62.6,100,30.02,5.0,Calm,Calm,-,N/A,,Scattered Clouds,0,2012-10-05 08:20:00
4:34 AM,62.6,62.6,100,30.02,7.0,Calm,Calm,-,N/A,,Mostly Cloudy,0,2012-10-05 08:34:00
4:53 AM,62.1,62.1,100,30.03,6.0,Variable,3.5,-,N/A,,Overcast,0,2012-10-05 08:53:00
5:53 AM,61.0,61.0,100,30.03,4.0,Calm,Calm,-,N/A,,Overcast,0,2012-10-05 09:53:00
6:01 AM,60.8,60.8,100,30.03,1.8,NW,4.6,-,N/A,,Overcast,320,2012-10-05 10:01:00
6:13 AM,60.8,60.8,100,30.03,0.8,NNW,4.6,-,N/A,,Mist,330,2012-10-05 10:13:00
6:53 AM,60.1,60.1,100,30.05,0.8,Calm,Calm,-,N/A,,Mist,0,2012-10-05 10:53:00
7:31 AM,60.8,60.8,100,30.05,0.2,Calm,Calm,-,N/A,Fog,Fog,0,2012-10-05 11:31:00
7:42 AM,60.8,60.8,100,30.06,0.8,Calm,Calm,-,N/A,,Overcast,0,2012-10-05 11:42:00
7:51 AM,60.8,60.8,100,30.06,1.0,Calm,Calm,-,N/A,,Overcast,0,2012-10-05 11:51:00
7:53 AM,60.1,60.1,100,30.06,1.0,Calm,Calm,-,N/A,,Overcast,0,2012-10-05 11:53:00
8:29 AM,60.8,60.8,100,30.06,2.5,Calm,Calm,-,N/A,,Overcast,0,2012-10-05 12:29:00
8:37 AM,60.8,60.8,100,30.06,3.0,Calm,Calm,-,N/A,,Overcast,0,2012-10-05 12:37:00
8:44 AM,60.8,60.8,100,30.06,2.5,Calm,Calm,-,N/A,,Overcast,0,2012-10-05 12:44:00
8:53 AM,61.0,61.0,100,30.05,4.0,Calm,Calm,-,N/A,,Mostly Cloudy,0,2012-10-05 12:53:00
9:10 AM,62.6,62.6,100,30.05,8.0,Calm,Calm,-,N/A,,Partly Cloudy,0,2012-10-05 13:10:00
9:53 AM,66.9,61.0,81,30.04,10.0,West,4.6,-,N/A,,Clear,280,2012-10-05 13:53:00
10:53 AM,69.1,62.1,78,30.03,10.0,WSW,4.6,-,N/A,,Clear,240,2012-10-05 14:53:00
11:53 AM,70.0,63.0,78,30.03,10.0,WSW,6.9,-,N/A,,Clear,240,2012-10-05 15:53:00
12:53 PM,72.0,63.0,73,30.01,10.0,SW,8.1,-,N/A,,Clear,230,2012-10-05 16:53:00
1:53 PM,72.0,63.0,73,29.99,10.0,WSW,8.1,-,N/A,,Clear,240,2012-10-05 17:53:00
2:53 PM,71.1,63.0,75,29.97,10.0,West,9.2,-,N/A,,Clear,260,2012-10-05 18:53:00
3:53 PM,72.0,60.1,66,29.96,10.0,WSW,9.2,-,N/A,,Clear,250,2012-10-05 19:53:00
4:53 PM,72.0,59.0,64,29.96,10.0,SW,5.8,-,N/A,,Clear,230,2012-10-05 20:53:00
5:53 PM,70.0,59.0,68,29.97,10.0,SW,4.6,-,N/A,,Clear,230,2012-10-05 21:53:00
6:53 PM,66.0,60.1,81,29.97,10.0,WSW,3.5,-,N/A,,Clear,240,2012-10-05 22:53:00
7:53 PM,64.9,61.0,87,29.97,10.0,SW,3.5,-,N/A,,Clear,220,2012-10-05 23:53:00
8:53 PM,64.0,62.1,93,29.97,7.0,Calm,Calm,-,N/A,,Clear,0,2012-10-06 00:53:00
9:53 PM,63.0,62.1,97,29.97,5.0,Calm,Calm,-,N/A,,Clear,0,2012-10-06 01:53:00
10:53 PM,61.0,60.1,97,29.96,2.5,Calm,Calm,-,N/A,,Clear,0,2012-10-06 02:53:00
11:10 PM,60.8,60.8,100,29.96,4.0,Calm,Calm,-,N/A,,Clear,0,2012-10-06 03:10:00
11:53 PM,59.0,57.9,96,29.95,5.0,Calm,Calm,-,N/A,,Clear,0,2012-10-06 03:53:00